FW9191 Weather Reports


time (UTC)temp
F
wind
direction
speed
knots
gust
knots
rain 1hr
in
rain 24hr
in
rain mn
in
humidity
%
barometer
mb
20260503053027 45 240 2.6 2.6 0.00 0.00 0.00 10 1013.2
20260503052523 45 186 0.9 0.9 0.00 0.00 0.00 10 1013.4
20260503052019 46 181 0.9 1.7 0.00 0.00 0.00 10 1013.4
20260503051515 48 181 0.0 0.9 0.00 0.00 0.00 10 1013.3
20260503051013 47 208 1.7 1.7 0.00 0.00 0.00 10 1013.3
20260503050508 47 212 1.7 1.7 0.00 0.00 0.00 10 1013.4
20260503050006 48 192 1.7 2.6 0.00 0.00 0.00 10 1013.3
20260503045503 49 181 0.0 0.0 0.00 0.00 0.00 10 1013.1
20260503045000 49 205 0.9 1.7 0.00 0.00 0.00 10 1013.1
20260503044457 50 178 1.7 1.7 0.00 0.00 0.00 10 1013.1
20260503043954 52 197 0.0 0.0 0.00 0.00 0.00 10 1013.3
20260503043450 52 155 1.7 2.6 0.00 0.00 0.00 10 1013.2
20260503042947 52 184 0.0 0.9 0.00 0.00 0.00 10 1013.0
20260503042444 53 177 1.7 1.7 0.00 0.00 0.00 10 1013.1
20260503041941 53 198 0.9 1.7 0.00 0.00 0.00 10 1013.2
20260503041437 53 203 0.9 0.9 0.00 0.00 0.00 10 1013.1
20260503040935 53 176 0.0 0.0 0.00 0.00 0.00 10 1012.8
20260503040432 53 191 0.9 0.9 0.00 0.00 0.00 10 1013.0
20260503035929 54 207 0.9 1.7 0.00 0.00 0.00 10 1012.8
20260503035426 54 179 0.9 0.9 0.00 0.00 0.00 10 1012.8
20260503034924 55 175 0.9 0.9 0.00 0.00 0.00 10 1012.8
20260503034421 55 181 0.0 0.0 0.00 0.00 0.00 10 1012.6
20260503033918 54 207 1.7 1.7 0.00 0.00 0.00 10 1012.6
20260503033415 55 181 0.9 1.7 0.00 0.00 0.00 10 1012.5
20260503032913 56 182 0.0 0.0 0.00 0.00 0.00 10 1012.5
20260503032412 56 231 2.6 2.6 0.00 0.00 0.00 10 1012.3
20260503031909 57 220 1.7 1.7 0.00 0.00 0.00 10 1012.6
20260503031407 58 217 2.6 2.6 0.00 0.00 0.00 10 1012.2
20260503030903 58 205 1.7 1.7 0.00 0.00 0.00 10 1012.2
20260503030359 59 202 2.6 2.6 0.00 0.00 0.00 10 1012.4
20260503025855 60 199 2.6 2.6 0.00 0.00 0.00 10 1012.2
20260503025353 60 225 4.3 5.2 0.00 0.00 0.00 10 1012.1
20260503024850 61 213 5.2 6.1 0.00 0.00 0.00 10 1011.9
20260503024347 62 212 6.1 7.0 0.00 0.00 0.00 10 1011.9
20260503023844 63 214 6.1 7.0 0.00 0.00 0.00 10 1012.2
20260503023341 63 225 7.0 7.8 0.00 0.00 0.00 10 1011.9
20260503022837 63 233 5.2 6.1 0.00 0.00 0.00 10 1012.2
20260503022332 64 230 4.3 6.1 0.00 0.00 0.00 10 1012.1
20260503021829 64 239 6.1 8.7 0.00 0.00 0.00 10 1012.1
20260503021325 64 249 6.1 7.0 0.00 0.00 0.00 10 1011.9
20260503020822 65 201 3.5 4.3 0.00 0.00 0.00 10 1012.1
20260503020321 66 226 9.6 11.3 0.00 0.00 0.00 10 1012.2
20260503015817 67 231 7.0 7.8 0.00 0.00 0.00 10 1011.9
20260503015314 67 219 5.2 7.0 0.00 0.00 0.00 10 1012.3
20260503014809 67 208 2.6 5.2 0.00 0.00 0.00 10 1012.3
20260503014307 66 220 4.3 5.2 0.00 0.00 0.00 10 1012.1
20260503013804 66 233 7.0 7.0 0.00 0.00 0.00 10 1012.3
20260503013302 66 213 8.7 11.3 0.00 0.00 0.00 10 1012.4
20260503012759 67 209 5.2 7.0 0.00 0.00 0.00 10 1012.4
20260503012256 67 228 7.8 8.7 0.00 0.00 0.00 10 1012.5
20260503011753 67 226 9.6 11.3 0.00 0.00 0.00 10 1012.4
20260503011250 67 196 3.5 5.2 0.00 0.00 0.00 10 1012.3
20260503010746 67 264 6.1 7.8 0.00 0.00 0.00 10 1012.3
20260503010243 67 236 12.2 14.8 0.00 0.00 0.00 10 1012.3
20260503005740 67 213 6.1 7.0 0.00 0.00 0.00 10 1012.4
20260503005237 68 204 6.1 7.8 0.00 0.00 0.00 10 1012.4
20260503004733 68 246 8.7 11.3 0.00 0.00 0.00 10 1012.5
20260503004232 68 236 9.6 11.3 0.00 0.00 0.00 10 1012.4
20260503003729 68 213 7.8 8.7 0.00 0.00 0.00 10 1012.4
20260503003226 68 239 7.8 11.3 0.00 0.00 0.00 10 1012.3
20260503002722 68 258 7.0 8.7 0.00 0.00 0.00 10 1012.4
20260503002219 68 260 7.8 11.3 0.00 0.00 0.00 10 1012.6
20260503001715 68 217 7.8 11.3 0.00 0.00 0.00 10 1012.6
20260503001212 67 224 7.8 8.7 0.00 0.00 0.00 10 1012.5
20260503000710 64 171 4.3 7.8 0.00 0.00 0.00 10 1012.5
20260503000207 65 151 7.0 8.7 0.00 0.00 0.00 10 1012.6
20260502235704 66 177 2.6 2.6 0.00 0.00 0.00 10 1012.6
20260502235202 65 210 6.1 7.8 0.00 0.00 0.00 10 1012.7
20260502234657 67 139 8.7 12.2 0.00 0.00 0.00 10 1012.7
20260502234155 69 167 2.6 4.3 0.00 0.00 0.00 10 1012.7
20260502233651 68 209 3.5 5.2 0.00 0.00 0.00 10 1012.8
20260502233148 68 267 6.1 7.0 0.00 0.00 0.00 10 1013.0
20260502232644 67 160 3.5 5.2 0.00 0.00 0.00 10 1013.1
20260502232141 67 178 4.3 5.2 0.00 0.00 0.00 10 1013.2
20260502231637 65 189 2.6 4.3 0.00 0.00 0.00 10 1013.1
20260502231136 67 181 6.1 7.0 0.00 0.00 0.00 10 1013.3
20260502230634 67 201 5.2 7.0 0.00 0.00 0.00 10 1013.2
20260502230132 68 241 8.7 9.6 0.00 0.00 0.00 10 1013.2
20260502225627 68 192 2.6 5.2 0.00 0.00 0.00 10 1013.2
20260502225125 67 266 7.8 12.2 0.00 0.00 0.00 10 1013.5
20260502224621 68 196 4.3 5.2 0.00 0.00 0.00 10 1013.4
20260502224117 68 180 6.1 7.8 0.00 0.00 0.00 10 1013.4
20260502223615 68 205 5.2 7.0 0.00 0.00 0.00 10 1013.6
20260502223114 67 203 5.2 7.0 0.00 0.00 0.00 10 1013.9
20260502222611 68 191 5.2 7.0 0.00 0.00 0.00 10 1013.9
20260502222107 68 147 3.5 5.2 0.00 0.00 0.00 10 1013.7
20260502221603 69 179 5.2 9.6 0.00 0.00 0.00 10 1013.9
20260502221100 67 146 2.6 2.6 0.00 0.00 0.00 10 1014.1
20260502220555 68 181 4.3 6.1 0.00 0.00 0.00 10 1014.4
20260502220053 69 162 6.1 7.8 0.00 0.00 0.00 10 1014.3
20260502215550 67 206 6.1 7.8 0.00 0.00 0.00 10 1014.2
20260502215046 68 178 7.0 11.3 0.00 0.00 0.00 10 1014.2
20260502214543 67 199 4.3 6.1 0.00 0.00 0.00 10 1014.2
20260502214041 67 193 4.3 5.2 0.00 0.00 0.00 10 1014.5
20260502213538 67 173 0.9 1.7 0.00 0.00 0.00 10 1014.3
20260502213036 67 213 0.9 2.6 0.00 0.00 0.00 10 1014.6
20260502212534 67 165 0.9 0.9 0.00 0.00 0.00 10 1014.5
20260502212032 66 179 1.7 1.7 0.00 0.00 0.00 10 1014.4
20260502211527 67 170 4.3 6.1 0.00 0.00 0.00 10 1014.6
20260502211024 66 165 3.5 5.2 0.00 0.00 0.00 10 1014.6
20260502210521 66 163 2.6 4.3 0.00 0.00 0.00 10 1014.8
20260502210018 65 209 3.5 4.3 0.00 0.00 0.00 10 1015.0
20260502205515 66 190 2.6 4.3 0.00 0.00 0.00 10 1015.2
20260502205012 66 198 3.5 4.3 0.00 0.00 0.00 10 1015.2
20260502204509 65 193 4.3 7.0 0.00 0.00 0.00 10 1015.3
20260502204007 65 181 5.2 7.8 0.00 0.00 0.00 10 1015.4
20260502203503 64 174 5.2 7.8 0.00 0.00 0.00 10 1015.4
20260502203000 64 194 4.3 6.1 0.00 0.00 0.00 10 1015.3
20260502202456 65 176 2.6 2.6 0.00 0.00 0.00 10 1015.5
20260502201955 65 181 3.5 5.2 0.00 0.00 0.00 10 1015.7
20260502201450 63 180 2.6 4.3 0.00 0.00 0.00 10 1015.9
20260502200947 65 161 5.2 6.1 0.00 0.00 0.00 10 1015.8
20260502200443 65 176 3.5 4.3 0.00 0.00 0.00 10 1015.9
20260502195941 63 207 4.3 5.2 0.00 0.00 0.00 10 1016.1
20260502195438 63 177 0.0 0.0 0.00 0.00 0.00 10 1016.0
20260502194934 63 196 2.6 2.6 0.00 0.00 0.00 10 1016.2
20260502194431 63 173 1.7 4.3 0.00 0.00 0.00 10 1016.2
20260502193927 63 197 3.5 4.3 0.00 0.00 0.00 10 1016.2
20260502193424 64 163 3.5 4.3 0.00 0.00 0.00 10 1016.2
20260502192919 62 165 1.7 5.2 0.00 0.00 0.00 10 1016.4
20260502192417 62 226 4.3 6.1 0.00 0.00 0.00 10 1016.6
20260502191914 64 193 2.6 5.2 0.00 0.00 0.00 10 1016.7
20260502191412 62 178 0.0 0.0 0.00 0.00 0.00 10 1016.9
20260502190909 60 162 2.6 4.3 0.00 0.00 0.00 10 1016.9
20260502190406 61 198 0.9 0.9 0.00 0.00 0.00 10 1016.9
20260502185902 62 198 3.5 4.3 0.00 0.00 0.00 10 1017.0
20260502185357 61 183 0.9 1.7 0.00 0.00 0.00 10 1017.1
20260502184855 61 112 2.6 4.3 0.00 0.00 0.00 10 1017.0
20260502184350 60 113 2.6 2.6 0.00 0.00 0.00 10 1017.0
20260502183847 61 174 0.9 0.9 0.00 0.00 0.00 10 1017.2
20260502183343 61 135 2.6 4.3 0.00 0.00 0.00 10 1017.2
20260502182838 61 193 2.6 2.6 0.00 0.00 0.00 10 1017.2
20260502182334 62 183 4.3 5.2 0.00 0.00 0.00 10 1017.5
20260502181831 60 172 0.0 0.0 0.00 0.00 0.00 10 1017.6
20260502181330 60 137 0.0 0.9 0.00 0.00 0.00 10 1017.7
20260502180827 60 177 1.7 2.6 0.00 0.00 0.00 10 1017.6
20260502180324 60 172 2.6 4.3 0.00 0.00 0.00 10 1017.8
20260502170243 58 140 0.9 0.9 0.00 0.00 0.00 10 1018.5
20260502164231 57 161 4.3 6.1 0.00 0.00 0.00 10 1018.6
20260502163726 59 174 0.0 0.0 0.00 0.00 0.00 10 1018.8
20260502163223 57 171 0.0 0.0 0.00 0.00 0.00 10 1018.8
20260502162720 56 167 0.0 0.0 0.00 0.00 0.00 10 1019.0
20260502162217 55 162 0.9 0.9 0.00 0.00 0.00 10 1018.9
20260502161714 54 124 1.7 1.7 0.00 0.00 0.00 10 1019.0
20260502161210 53 159 0.9 0.9 0.00 0.00 0.00 10 1018.9
20260502160709 54 170 0.9 0.9 0.00 0.00 0.00 10 1019.1
20260502160208 51 179 0.0 0.9 0.00 0.00 0.00 10 1019.1
20260502152126 48 183 2.6 2.6 0.00 0.00 0.00 10 1019.7
20260502151624 47 178 2.6 2.6 0.00 0.00 0.00 10 1019.7
20260502151121 46 172 2.6 4.3 0.00 0.00 0.00 10 1019.6
20260502150619 46 179 2.6 2.6 0.00 0.00 0.00 10 1019.5
20260502150114 47 197 2.6 4.3 0.00 0.00 0.00 10 1019.5
20260502130503 39 181 0.9 0.9 0.00 0.00 0.00 10 1019.5
20260502123446 39 195 0.9 0.9 0.00 0.00 0.00 10 1019.4
20260502122943 39 179 0.0 0.0 0.00 0.00 0.00 10 1019.4
20260502122439 40 176 0.9 0.9 0.00 0.00 0.00 10 1019.1
20260502121937 40 207 1.7 1.7 0.00 0.00 0.00 10 1019.3
20260502121434 40 233 2.6 2.6 0.00 0.00 0.00 10 1019.3
20260502120932 40 226 2.6 2.6 0.00 0.00 0.00 10 1019.5
20260502120428 40 233 2.6 2.6 0.00 0.00 0.00 10 1019.4
20260502115925 40 178 0.0 0.0 0.00 0.00 0.00 10 1019.3
20260502115422 41 190 0.0 0.0 0.00 0.00 0.00 10 1019.5
20260502114918 41 179 0.0 0.0 0.00 0.00 0.00 10 1019.4
20260502114415 41 199 0.0 0.0 0.00 0.00 0.00 10 1019.3
20260502113912 41 185 0.0 0.0 0.00 0.00 0.00 10 1019.5
20260502113410 41 179 0.0 0.0 0.00 0.00 0.00 10 1019.4
20260502112909 42 186 0.9 0.9 0.00 0.00 0.00 10 1019.4
20260502112405 42 179 0.0 0.0 0.00 0.00 0.00 10 1019.5
20260502111903 42 179 0.0 0.0 0.00 0.00 0.00 10 1019.4
20260502111400 42 183 0.0 0.0 0.00 0.00 0.00 10 1019.5
20260502110857 42 189 0.9 0.9 0.00 0.00 0.00 10 1019.5
20260502110355 43 190 0.9 0.9 0.00 0.00 0.00 10 1019.6
20260502105852 43 205 1.7 1.7 0.00 0.00 0.00 10 1019.4
20260502105349 43 199 1.7 1.7 0.00 0.00 0.00 10 1019.3
20260502104847 42 190 0.0 0.9 0.00 0.00 0.00 10 1019.4
20260502104344 42 177 0.0 0.0 0.00 0.00 0.00 10 1019.6
20260502103841 43 197 0.9 0.9 0.00 0.00 0.00 10 1019.3
20260502103339 43 225 2.6 2.6 0.00 0.00 0.00 10 1019.5
20260502102836 43 208 1.7 1.7 0.00 0.00 0.00 10 1019.5
20260502102332 43 189 0.9 0.9 0.00 0.00 0.00 10 1019.5
20260502101830 43 182 0.0 0.0 0.00 0.00 0.00 10 1019.6
20260502101328 42 183 0.0 0.0 0.00 0.00 0.00 10 1019.5
20260502100826 42 182 0.0 0.0 0.00 0.00 0.00 10 1019.4
20260502100325 42 180 0.0 0.0 0.00 0.00 0.00 10 1019.6
20260502091258 44 203 1.7 1.7 0.00 0.00 0.00 10 1019.1
20260502090756 44 192 0.9 0.9 0.00 0.00 0.00 10 1019.3
20260502090252 44 182 0.0 0.9 0.00 0.00 0.00 10 1019.4
20260502071147 46 183 0.0 0.0 0.00 0.00 0.00 10 1018.9
20260502070646 47 185 0.0 0.9 0.00 0.00 0.00 10 1018.9
20260502070143 47 186 0.9 0.9 0.00 0.00 0.00 10 1018.8
20260502065641 47 181 0.0 0.0 0.00 0.00 0.00 10 1018.9
20260502065138 47 153 0.9 0.9 0.00 0.00 0.00 10 1018.7
20260502064637 47 151 1.7 1.7 0.00 0.00 0.00 10 1018.9
20260502064134 47 174 0.0 0.0 0.00 0.00 0.00 10 1019.0
20260502063632 48 181 0.0 0.0 0.00 0.00 0.00 10 1018.8
20260502063129 48 187 0.9 0.9 0.00 0.00 0.00 10 1018.9
20260502062626 48 206 1.7 1.7 0.00 0.00 0.00 10 1018.7
20260502062124 48 186 0.9 0.9 0.00 0.00 0.00 10 1018.9
20260502061622 48 200 0.9 0.9 0.00 0.00 0.00 10 1018.8
20260502061119 48 178 0.0 0.0 0.00 0.00 0.00 10 1018.7
20260502060619 48 189 0.0 0.9 0.00 0.00 0.00 10 1018.9
20260502060116 48 175 1.7 1.7 0.00 0.00 0.00 10 1018.8
20260502055614 48 176 0.9 0.9 0.00 0.00 0.00 10 1018.6
20260502055112 47 187 0.9 0.9 0.00 0.00 0.00 10 1018.8
20260502054611 47 190 1.7 1.7 0.00 0.00 0.00 10 1018.7
20260502054107 47 193 1.7 1.7 0.00 0.00 0.00 10 1018.5
20260502053604 49 190 0.9 0.9 0.00 0.00 0.00 10 1018.4